TimeCST,TemperatureF,Dew PointF,Humidity,Sea Level PressureIn,VisibilityMPH,Wind Direction,Wind SpeedMPH,Gust SpeedMPH,PrecipitationIn,Events,Conditions,WindDirDegrees,DateUTC
12:14 AM,19.4,17.6,93,30.14,5.0,Calm,Calm,-,0.01,Snow,Light Snow,0,2012-12-28 06:14:00
12:33 AM,19.4,17.6,93,30.14,10.0,Calm,Calm,-,0.01,,Overcast,0,2012-12-28 06:33:00
12:53 AM,19.4,17.6,93,30.14,4.0,Calm,Calm,-,0.01,Snow,Light Snow,0,2012-12-28 06:53:00
1:14 AM,19.4,17.6,93,30.13,10.0,Calm,Calm,-,N/A,Snow,Light Snow,0,2012-12-28 07:14:00
1:33 AM,19.4,17.6,93,30.13,4.0,Calm,Calm,-,N/A,Snow,Light Snow,0,2012-12-28 07:33:00
1:53 AM,19.4,17.6,93,30.13,4.0,Calm,Calm,-,N/A,Snow,Light Snow,0,2012-12-28 07:53:00
2:14 AM,19.4,17.6,93,30.13,7.0,Calm,Calm,-,N/A,Snow,Light Snow,0,2012-12-28 08:14:00
2:33 AM,19.4,17.6,93,30.13,3.0,Calm,Calm,-,0.01,Snow,Light Snow,0,2012-12-28 08:33:00
2:53 AM,19.4,17.6,93,30.13,4.0,Calm,Calm,-,0.01,Snow,Light Snow,0,2012-12-28 08:53:00
3:13 AM,19.4,17.6,93,30.12,4.0,Calm,Calm,-,N/A,Snow,Light Snow,0,2012-12-28 09:13:00
3:34 AM,19.4,17.6,93,30.12,3.0,Calm,Calm,-,N/A,Snow,Light Snow,0,2012-12-28 09:34:00
3:54 AM,19.4,17.6,93,30.11,4.0,Calm,Calm,-,0.01,Snow,Light Snow,0,2012-12-28 09:54:00
4:13 AM,19.4,17.6,93,30.10,3.0,Calm,Calm,-,N/A,Snow,Light Snow,0,2012-12-28 10:13:00
4:34 AM,19.4,17.6,93,30.09,2.0,Calm,Calm,-,0.01,Snow,Light Snow,0,2012-12-28 10:34:00
4:54 AM,19.4,17.6,93,30.09,3.0,Calm,Calm,-,0.01,Snow,Light Snow,0,2012-12-28 10:54:00
5:13 AM,19.4,17.6,93,30.09,4.0,Calm,Calm,-,N/A,Snow,Light Snow,0,2012-12-28 11:13:00
5:34 AM,19.4,17.6,93,30.08,2.0,Calm,Calm,-,N/A,Snow,Light Snow,0,2012-12-28 11:34:00
5:54 AM,19.4,17.6,93,30.08,2.5,Calm,Calm,-,N/A,Snow,Light Snow,0,2012-12-28 11:54:00
6:13 AM,19.4,17.6,93,30.08,2.0,Calm,Calm,-,N/A,Snow,Light Snow,0,2012-12-28 12:13:00
6:34 AM,19.4,17.6,93,30.07,3.0,Calm,Calm,-,N/A,Snow,Light Snow,0,2012-12-28 12:34:00
6:54 AM,19.4,17.6,93,30.07,2.5,Calm,Calm,-,0.01,Snow,Light Snow,0,2012-12-28 12:54:00
7:13 AM,19.4,17.6,93,30.07,3.0,Calm,Calm,-,N/A,Snow,Light Snow,0,2012-12-28 13:13:00
7:34 AM,19.4,17.6,93,30.07,2.5,Calm,Calm,-,N/A,Snow,Light Snow,0,2012-12-28 13:34:00
7:54 AM,19.4,17.6,93,30.07,3.0,Calm,Calm,-,N/A,Snow,Light Snow,0,2012-12-28 13:54:00
8:13 AM,19.4,17.6,93,30.07,1.5,Calm,Calm,-,N/A,Snow,Light Snow,0,2012-12-28 14:13:00
8:34 AM,19.4,17.6,93,30.07,1.8,Calm,Calm,-,N/A,Snow,Light Snow,0,2012-12-28 14:34:00
8:54 AM,19.4,17.6,93,30.07,1.5,Calm,Calm,-,0.01,Snow,Light Snow,0,2012-12-28 14:54:00
9:13 AM,21.2,17.6,86,30.07,2.5,Calm,Calm,-,0.01,Snow,Light Snow,0,2012-12-28 15:13:00
9:34 AM,21.2,17.6,86,30.07,2.5,Calm,Calm,-,0.02,Snow,Light Snow,0,2012-12-28 15:34:00
9:54 AM,21.2,17.6,86,30.07,2.0,Calm,Calm,-,0.02,Snow,Light Snow,0,2012-12-28 15:54:00
10:13 AM,21.2,17.6,86,30.07,2.5,Calm,Calm,-,0.01,,Overcast,0,2012-12-28 16:13:00
10:34 AM,23.0,17.6,80,30.07,5.0,Calm,Calm,-,0.01,,Overcast,0,2012-12-28 16:34:00
10:54 AM,23.0,19.4,86,30.06,2.5,Calm,Calm,-,0.02,Snow,Light Snow,0,2012-12-28 16:54:00
11:13 AM,23.0,17.6,80,30.05,4.0,Calm,Calm,-,N/A,Snow,Light Snow,0,2012-12-28 17:13:00
11:34 AM,23.0,19.4,86,30.04,5.0,Calm,Calm,-,N/A,Snow,Light Snow,0,2012-12-28 17:34:00
11:54 AM,23.0,19.4,86,30.03,10.0,Calm,Calm,-,N/A,Snow,Light Snow,0,2012-12-28 17:54:00
12:13 PM,23.0,17.6,80,30.02,10.0,Calm,Calm,-,N/A,Snow,Light Snow,0,2012-12-28 18:13:00
12:34 PM,24.8,19.4,80,30.00,2.0,East,3.5,-,N/A,Snow,Light Snow,90,2012-12-28 18:34:00
12:54 PM,24.8,19.4,80,29.99,2.5,Calm,Calm,-,N/A,Snow,Light Snow,0,2012-12-28 18:54:00
1:13 PM,26.6,19.4,74,29.99,2.0,Calm,Calm,-,N/A,Snow,Light Snow,0,2012-12-28 19:13:00
1:34 PM,26.6,21.2,80,29.98,2.0,ENE,3.5,-,N/A,Snow,Light Snow,70,2012-12-28 19:34:00
1:54 PM,26.6,21.2,80,29.98,2.5,Calm,Calm,-,N/A,Snow,Light Snow,0,2012-12-28 19:54:00
2:13 PM,26.6,21.2,80,29.97,4.0,Calm,Calm,-,N/A,Snow,Light Snow,0,2012-12-28 20:13:00
2:34 PM,26.6,21.2,80,29.97,4.0,Calm,Calm,-,N/A,Snow,Light Snow,0,2012-12-28 20:34:00
2:53 PM,26.6,21.2,80,29.98,5.0,NNE,3.5,-,N/A,Snow,Light Snow,30,2012-12-28 20:53:00
3:14 PM,26.6,21.2,80,29.98,5.0,NE,3.5,-,N/A,Snow,Light Snow,40,2012-12-28 21:14:00
3:34 PM,24.8,19.4,80,29.98,7.0,NNE,3.5,-,N/A,Snow,Light Snow,20,2012-12-28 21:34:00
3:53 PM,24.8,19.4,80,29.99,7.0,Calm,Calm,-,N/A,Snow,Light Snow,0,2012-12-28 21:53:00
4:34 PM,23.0,19.4,86,29.99,5.0,Calm,Calm,-,N/A,Snow,Light Snow,0,2012-12-28 22:34:00
4:53 PM,23.0,19.4,86,29.99,5.0,Calm,Calm,-,N/A,Snow,Light Snow,0,2012-12-28 22:53:00
5:14 PM,23.0,19.4,86,29.99,5.0,Calm,Calm,-,N/A,Snow,Light Snow,0,2012-12-28 23:14:00
5:54 PM,21.2,19.4,93,29.99,5.0,NW,4.6,-,N/A,Snow,Light Snow,320,2012-12-28 23:54:00
6:13 PM,21.2,19.4,93,29.99,7.0,NW,5.8,-,N/A,Snow,Light Snow,320,2012-12-29 00:13:00
6:34 PM,21.2,19.4,93,30.00,7.0,NW,5.8,-,N/A,Snow,Light Snow,310,2012-12-29 00:34:00
6:53 PM,21.2,17.6,86,30.00,10.0,NW,5.8,-,N/A,,Overcast,310,2012-12-29 00:53:00
7:13 PM,21.2,19.4,93,30.00,10.0,NW,5.8,-,N/A,,Overcast,320,2012-12-29 01:13:00
7:34 PM,21.2,19.4,93,30.00,10.0,NNW,4.6,-,N/A,,Overcast,330,2012-12-29 01:34:00
7:53 PM,21.2,19.4,93,30.00,10.0,NNW,6.9,-,N/A,,Overcast,330,2012-12-29 01:53:00
8:13 PM,21.2,19.4,93,30.00,7.0,NNW,5.8,-,N/A,Snow,Light Snow,330,2012-12-29 02:13:00
8:34 PM,21.2,17.6,86,29.99,10.0,NW,5.8,-,N/A,,Overcast,320,2012-12-29 02:34:00
8:53 PM,21.2,17.6,86,29.99,10.0,NW,4.6,-,N/A,,Overcast,310,2012-12-29 02:53:00
9:13 PM,21.2,17.6,86,29.99,10.0,NW,5.8,-,N/A,,Overcast,320,2012-12-29 03:13:00
9:34 PM,21.2,17.6,86,29.99,10.0,NNW,6.9,-,N/A,,Overcast,330,2012-12-29 03:34:00
9:53 PM,21.2,17.6,86,29.99,10.0,NNW,8.1,-,N/A,,Overcast,330,2012-12-29 03:53:00
10:13 PM,21.2,17.6,86,29.99,10.0,NNW,6.9,-,N/A,,Overcast,340,2012-12-29 04:13:00
10:34 PM,21.2,17.6,86,29.99,10.0,NNW,8.1,-,N/A,,Overcast,340,2012-12-29 04:34:00
10:53 PM,21.2,17.6,86,29.99,10.0,NNW,6.9,-,N/A,,Overcast,340,2012-12-29 04:53:00
11:13 PM,21.2,17.6,86,29.99,10.0,NNW,3.5,-,N/A,,Overcast,340,2012-12-29 05:13:00
11:34 PM,21.2,17.6,86,29.98,10.0,North,3.5,-,N/A,,Overcast,350,2012-12-29 05:34:00
11:53 PM,21.2,17.6,86,29.98,10.0,NNW,6.9,-,N/A,,Overcast,330,2012-12-29 05:53:00